FW7092 Weather Reports


time (UTC)temp
F
wind
direction
speed
knots
gust
knots
rain 1hr
in
rain 24hr
in
rain mn
in
humidity
%
barometer
mb
20260510083050 51 175 0.0 0.9 0.00 0.00 0.00 75 1015.0
20260510082547 51 170 0.9 0.9 0.00 0.00 0.00 73 1015.2
20260510082042 51 165 0.0 0.9 0.00 0.00 0.00 73 1015.1
20260510081537 51 179 0.0 0.9 0.00 0.00 0.00 73 1014.9
20260510081033 51 155 0.0 0.9 0.00 0.00 0.00 73 1014.9
20260510080532 52 174 0.0 0.9 0.00 0.00 0.00 72 1014.7
20260510080030 52 76 0.9 0.9 0.00 0.00 0.00 71 1014.6
20260510075526 52 116 0.0 0.9 0.00 0.00 0.00 71 1014.7
20260510075023 51 180 0.0 0.9 0.00 0.00 0.00 71 1014.6
20260510074521 51 179 0.0 0.0 0.00 0.00 0.00 72 1014.6
20260510074016 51 197 0.0 0.0 0.00 0.00 0.00 72 1014.5
20260510073512 51 212 0.0 0.0 0.00 0.00 0.00 71 1014.2
20260510073010 51 189 0.0 0.9 0.00 0.00 0.00 71 1014.1
20260510072506 49 78 1.7 5.2 0.00 0.00 0.00 76 1014.2
20260510072001 48 220 0.0 0.0 0.00 0.00 0.00 77 1013.9
20260510071458 48 220 0.0 0.0 0.00 0.00 0.00 77 1014.0
20260510070956 47 220 0.0 0.0 0.00 0.00 0.00 78 1013.9
20260510070454 47 220 0.0 0.0 0.00 0.00 0.00 79 1014.0
20260510065949 47 219 0.0 0.0 0.00 0.00 0.00 80 1013.9
20260510065446 46 224 0.9 0.9 0.00 0.00 0.00 79 1013.8
20260510064942 47 224 0.0 0.0 0.00 0.00 0.00 79 1013.6
20260510064440 49 221 0.0 0.0 0.00 0.00 0.00 77 1013.6
20260510063936 49 220 0.0 0.0 0.00 0.00 0.00 72 1013.4
20260510063432 49 218 0.0 0.0 0.00 0.00 0.00 73 1013.5
20260510062931 50 209 0.0 0.0 0.00 0.00 0.00 72 1013.4
20260510062430 50 209 0.0 0.0 0.00 0.00 0.00 71 1013.3
20260510061926 51 209 0.0 0.0 0.00 0.00 0.00 69 1013.3
20260510061423 52 202 0.0 0.0 0.00 0.00 0.00 68 1013.3
20260510060919 52 202 0.0 0.0 0.00 0.00 0.00 66 1013.3
20260510060416 53 201 0.0 0.0 0.00 0.00 0.00 65 1013.2
20260510055912 53 235 0.0 0.0 0.00 0.00 0.00 63 1013.1
20260510055408 53 233 0.0 0.0 0.00 0.00 0.00 63 1013.0
20260510054900 53 248 0.0 0.0 0.00 0.00 0.00 64 1013.0
20260510054356 53 217 0.0 0.0 0.00 0.00 0.00 64 1012.8
20260510053851 54 234 0.0 0.0 0.00 0.00 0.00 63 1012.9
20260510053347 54 253 0.0 0.9 0.00 0.00 0.00 62 1012.8
20260510052843 54 234 0.0 0.0 0.00 0.00 0.00 62 1012.9
20260510052339 54 233 0.0 0.0 0.00 0.00 0.00 61 1012.8
20260510051836 54 227 0.0 0.0 0.00 0.00 0.00 63 1012.7
20260510051333 54 228 0.0 0.0 0.00 0.00 0.00 61 1012.5
20260510050830 55 234 0.0 0.0 0.00 0.00 0.00 60 1012.5
20260510050326 55 227 0.0 0.0 0.00 0.00 0.00 59 1012.4
20260510045823 56 224 0.0 0.0 0.00 0.00 0.00 59 1012.4
20260510045320 56 234 0.0 0.0 0.00 0.00 0.00 59 1012.2
20260510044817 57 233 0.0 0.9 0.00 0.00 0.00 57 1012.1
20260510044314 57 231 0.0 0.9 0.00 0.00 0.00 57 1011.9
20260510043810 58 317 0.9 1.7 0.00 0.00 0.00 56 1011.7
20260510043306 58 196 0.0 1.7 0.00 0.00 0.00 55 1011.6
20260510042804 58 301 0.9 1.7 0.00 0.00 0.00 55 1011.5
20260510042259 59 29 1.7 1.7 0.00 0.00 0.00 55 1011.3
20260510041756 59 12 2.6 6.1 0.00 0.00 0.00 54 1011.2
20260510041254 59 23 1.7 5.2 0.00 0.00 0.00 54 1011.2
20260510040751 60 280 0.9 6.1 0.00 0.00 0.00 55 1011.2
20260510040248 60 317 1.7 7.0 0.00 0.00 0.00 56 1011.3
20260510035743 60 312 5.2 7.8 0.00 0.05 0.05 56 1011.1
20260510035239 59 226 2.6 6.1 0.00 0.05 0.05 63 1011.0
20260510034735 59 353 0.9 4.3 0.00 0.05 0.05 70 1010.8
20260510034233 59 289 2.6 6.1 0.00 0.05 0.05 76 1010.9
20260510033729 59 284 2.6 5.2 0.00 0.05 0.05 80 1010.7
20260510033227 59 219 2.6 5.2 0.00 0.05 0.05 82 1010.6
20260510032723 58 230 2.6 4.3 0.00 0.05 0.05 83 1010.5
20260510032219 58 273 3.5 4.3 0.00 0.05 0.05 84 1010.5
20260510031714 58 324 2.6 2.6 0.00 0.05 0.05 84 1010.4
20260510031210 58 237 2.6 4.3 0.00 0.05 0.05 86 1010.3
20260510030709 58 256 3.5 4.3 0.00 0.05 0.05 85 1010.0
20260510030208 58 241 2.6 2.6 0.00 0.05 0.05 86 1009.6
20260510025705 57 235 3.5 4.3 0.00 0.05 0.05 87 1009.5
20260510025202 57 216 3.5 4.3 0.00 0.05 0.05 87 1009.5
20260510024659 57 233 1.7 1.7 0.00 0.05 0.05 86 1009.4
20260510024155 57 222 1.7 2.6 0.00 0.05 0.05 86 1009.3
20260510023651 57 213 2.6 2.6 0.00 0.05 0.05 85 1009.1
20260510023148 57 209 2.6 4.3 0.00 0.05 0.05 85 1009.1
20260510022643 57 203 4.3 5.2 0.00 0.05 0.05 86 1009.3
20260510022138 56 218 4.3 5.2 0.00 0.05 0.05 87 1009.1
20260510021634 57 216 3.5 4.3 0.00 0.05 0.05 86 1008.9
20260510021131 57 215 4.3 5.2 0.00 0.05 0.05 86 1008.8
20260510020626 56 218 4.3 5.2 0.00 0.05 0.05 87 1008.8
20260510020121 56 206 2.6 4.3 0.00 0.05 0.05 87 1008.6
20260510015618 57 224 4.3 5.2 0.00 0.05 0.05 87 1008.7
20260510015114 57 217 4.3 5.2 0.00 0.05 0.05 86 1008.7
20260510014610 57 212 3.5 4.3 0.00 0.05 0.05 86 1008.5
20260510014108 58 226 4.3 5.2 0.00 0.05 0.05 86 1008.6
20260510013601 58 211 4.3 5.2 0.00 0.05 0.05 86 1008.6
20260510013058 58 212 4.3 6.1 0.00 0.05 0.05 86 1008.5
20260510012551 59 215 3.5 4.3 0.00 0.05 0.05 84 1008.4
20260510012048 59 214 4.3 6.1 0.00 0.05 0.05 82 1008.2
20260510011548 59 220 4.3 6.1 0.00 0.05 0.05 82 1008.3
20260510011044 60 218 4.3 7.0 0.00 0.05 0.05 81 1008.3
20260510010541 60 228 7.8 8.7 0.00 0.05 0.05 80 1008.4
20260510010038 60 224 6.1 7.8 0.00 0.05 0.05 81 1008.4
20260510005533 60 215 6.1 7.8 0.00 0.05 0.05 79 1008.0
20260510005031 60 212 4.3 6.1 0.00 0.05 0.05 79 1008.1
20260510004529 60 205 2.6 4.3 0.00 0.05 0.05 79 1008.1
20260510004027 61 229 2.6 4.3 0.00 0.05 0.05 79 1008.0
20260510003523 61 221 3.5 4.3 0.00 0.05 0.05 78 1007.9
20260510003018 61 229 2.6 2.6 0.00 0.05 0.05 77 1007.8
20260510002514 62 232 3.5 5.2 0.00 0.05 0.05 76 1007.9
20260510002011 62 232 5.2 6.1 0.00 0.05 0.05 75 1007.9
20260510001508 61 239 4.3 7.8 0.00 0.05 0.05 75 1007.8
20260510001006 61 227 3.5 4.3 0.00 0.05 0.05 77 1007.7
20260510000501 62 239 2.6 2.6 0.00 0.05 0.05 76 1007.7
20260509235958 62 212 3.5 4.3 0.00 0.05 0.05 76 1007.7
20260509235455 62 229 3.5 5.2 0.00 0.05 0.05 75 1007.8
20260509234951 63 210 4.3 6.1 0.00 0.05 0.05 74 1007.7
20260509234448 63 228 4.3 6.1 0.00 0.05 0.05 72 1007.7
20260509233946 63 243 6.1 7.0 0.00 0.05 0.05 72 1007.8
20260509233444 63 239 7.8 9.6 0.00 0.05 0.05 71 1007.7
20260509232939 63 218 7.0 8.7 0.00 0.05 0.05 73 1007.6
20260509232438 63 213 5.2 7.8 0.00 0.05 0.05 73 1007.7
20260509231933 64 199 7.0 11.3 0.00 0.05 0.05 71 1007.5
20260509231429 64 217 10.4 12.2 0.00 0.05 0.05 70 1007.7
20260509230928 64 231 7.8 9.6 0.00 0.05 0.05 70 1007.6
20260509230425 64 239 7.8 9.6 0.00 0.05 0.05 71 1007.7
20260509225920 64 225 8.7 9.6 0.00 0.05 0.05 70 1007.8
20260509225417 64 219 8.7 11.3 0.00 0.05 0.05 71 1007.7
20260509224913 64 235 6.1 9.6 0.00 0.05 0.05 72 1007.6
20260509224408 63 224 6.1 11.3 0.00 0.05 0.05 74 1007.6
20260509223906 63 223 7.8 11.3 0.00 0.05 0.05 73 1007.7
20260509223402 63 196 6.1 11.3 0.00 0.05 0.05 72 1007.7
20260509222900 63 205 9.6 9.6 0.00 0.05 0.05 73 1007.7
20260509222355 63 231 7.8 12.2 0.00 0.05 0.05 71 1007.7
20260509221850 63 249 7.0 12.2 0.00 0.05 0.05 74 1007.6
20260509221348 62 215 7.8 11.3 0.00 0.05 0.05 75 1007.7
20260509220843 62 233 9.6 13.9 0.00 0.05 0.05 74 1007.7
20260509220339 61 263 12.2 15.6 0.00 0.05 0.05 76 1007.6
20260509215834 62 242 9.6 13.0 0.00 0.05 0.05 78 1007.6
20260509215331 61 222 11.3 14.8 0.00 0.05 0.05 76 1007.8
20260509214828 61 240 9.6 13.9 0.00 0.05 0.05 78 1007.6
20260509214325 62 248 10.4 13.0 0.00 0.05 0.05 76 1007.4
20260509213823 62 225 7.8 12.2 0.00 0.05 0.05 80 1007.3
20260509213317 60 226 12.2 14.8 0.00 0.05 0.05 76 1007.4
20260509212816 60 229 9.6 13.9 0.07 0.05 0.05 82 1007.2
20260509212313 58 246 10.4 15.6 0.28 0.05 0.05 86 1007.6
20260509211809 60 252 15.6 19.1 0.00 0.00 0.00 77 1007.6
20260509211305 60 263 14.8 18.2 0.00 0.00 0.00 74 1006.9
20260509210802 66 249 22.6 26.9 0.00 0.00 0.00 56 1006.7
20260509210300 69 228 13.9 19.1 0.00 0.00 0.00 59 1005.9
20260509205759 70 223 13.0 22.6 0.00 0.00 0.00 55 1005.8
20260509205254 70 197 12.2 20.9 0.00 0.00 0.00 55 1005.8
20260509204750 70 229 13.0 17.4 0.00 0.00 0.00 55 1005.4
20260509204247 70 243 18.2 20.9 0.00 0.00 0.00 54 1005.7
20260509203743 70 209 13.9 20.9 0.00 0.00 0.00 54 1005.7
20260509203241 70 212 14.8 17.4 0.00 0.00 0.00 54 1005.7
20260509202736 71 248 11.3 18.2 0.00 0.00 0.00 56 1005.6
20260509202233 71 239 15.6 20.9 0.00 0.00 0.00 56 1005.8
20260509201727 71 235 14.8 20.0 0.00 0.00 0.00 56 1005.9
20260509201224 72 244 13.9 20.0 0.00 0.00 0.00 55 1005.8
20260509200720 71 228 9.6 14.8 0.00 0.00 0.00 58 1006.2
20260509200215 71 227 15.6 20.0 0.00 0.00 0.00 57 1006.4
20260509195711 71 240 16.5 21.7 0.00 0.00 0.00 55 1006.3
20260509195207 70 239 10.4 17.4 0.00 0.00 0.00 59 1006.4
20260509194701 71 251 13.9 19.1 0.00 0.00 0.00 58 1006.4
20260509194158 69 225 18.2 21.7 0.00 0.00 0.00 60 1006.5
20260509193654 71 212 18.2 22.6 0.00 0.00 0.00 60 1006.7
20260509193149 70 236 10.4 15.6 0.00 0.00 0.00 61 1006.8
20260509192646 71 220 16.5 21.7 0.00 0.00 0.00 61 1006.7
20260509192141 70 229 17.4 21.7 0.00 0.00 0.00 62 1006.6
20260509191641 71 240 15.6 20.0 0.00 0.00 0.00 60 1006.6
20260509191138 70 227 17.4 20.9 0.00 0.00 0.00 61 1006.8
20260509190635 70 213 13.9 21.7 0.00 0.00 0.00 64 1006.8
20260509190132 71 198 13.9 18.2 0.00 0.00 0.00 62 1007.0
20260509185630 70 253 12.2 20.0 0.00 0.00 0.00 63 1006.9
20260509185125 70 229 13.0 19.1 0.00 0.00 0.00 61 1006.9
20260509184624 70 210 13.9 17.4 0.00 0.00 0.00 66 1007.0
20260509184120 70 200 9.6 15.6 0.00 0.00 0.00 65 1006.9
20260509183616 69 240 10.4 14.8 0.00 0.00 0.00 67 1007.1
20260509183112 68 221 11.3 20.0 0.00 0.00 0.00 66 1007.1
20260509182608 67 230 13.0 20.0 0.00 0.00 0.00 66 1007.4
20260509182105 67 219 15.6 19.1 0.00 0.00 0.00 68 1007.5
20260509181603 67 229 12.2 18.2 0.00 0.00 0.00 68 1007.4
20260509181100 68 211 13.0 17.4 0.00 0.00 0.00 68 1007.4
20260509180556 68 245 13.0 19.1 0.00 0.00 0.00 66 1007.3
20260509180054 68 226 14.8 17.4 0.00 0.00 0.00 69 1007.3
20260509175549 67 202 12.2 13.9 0.00 0.00 0.00 71 1007.5
20260509175047 66 245 9.6 18.2 0.00 0.00 0.00 72 1007.5
20260509174542 68 219 12.2 19.1 0.00 0.00 0.00 69 1007.3
20260509174038 67 224 13.9 18.2 0.00 0.00 0.00 68 1007.2
20260509173532 67 235 12.2 18.2 0.00 0.00 0.00 69 1007.3
20260509173029 66 256 12.2 15.6 0.00 0.00 0.00 69 1007.5
20260509172526 65 216 15.6 21.7 0.00 0.00 0.00 70 1007.5
20260509172021 66 216 8.7 18.2 0.00 0.00 0.00 73 1007.5
20260509171518 66 210 12.2 17.4 0.00 0.00 0.00 71 1007.4
20260509171015 66 231 13.0 19.1 0.00 0.00 0.00 69 1007.7
20260509170510 65 193 13.9 20.0 0.00 0.00 0.00 71 1007.5
20260509170006 65 221 14.8 19.1 0.00 0.00 0.00 71 1007.8
20260509165505 65 212 13.0 15.6 0.00 0.00 0.00 72 1007.7
20260509165001 65 209 12.2 17.4 0.00 0.00 0.00 73 1007.7
20260509164457 64 221 12.2 19.1 0.00 0.00 0.00 72 1007.5
20260509163953 64 207 11.3 15.6 0.00 0.00 0.00 73 1007.7
20260509163451 64 229 10.4 13.0 0.00 0.00 0.00 73 1007.9
20260509162949 64 198 10.4 14.8 0.00 0.00 0.00 73 1007.9
20260509162449 64 220 10.4 13.0 0.00 0.00 0.00 75 1007.8
20260509161944 64 223 11.3 15.6 0.00 0.00 0.00 75 1008.0
20260509161441 63 213 12.2 14.8 0.00 0.00 0.00 76 1007.8
20260509160936 63 213 12.2 14.8 0.00 0.00 0.00 76 1007.9
20260509160432 62 210 11.3 13.0 0.00 0.00 0.00 76 1007.9
20260509155927 62 211 10.4 13.0 0.00 0.00 0.00 78 1008.1
20260509155424 62 228 9.6 13.9 0.00 0.00 0.00 80 1008.1
20260509154920 62 235 9.6 11.3 0.00 0.00 0.00 78 1008.2
20260509154417 62 206 8.7 12.2 0.00 0.00 0.00 79 1008.1
20260509153914 61 199 8.7 11.3 0.00 0.00 0.00 81 1008.1
20260509153411 61 241 10.4 13.0 0.00 0.00 0.00 78 1007.9
20260509152908 61 223 10.4 12.2 0.00 0.00 0.00 80 1008.4
20260509152404 61 219 7.8 11.3 0.00 0.00 0.00 80 1008.5
20260509151901 60 237 7.8 12.2 0.00 0.00 0.00 81 1008.5
20260509151356 60 234 9.6 15.6 0.00 0.00 0.00 81 1008.6
20260509150855 60 236 7.8 12.2 0.00 0.00 0.00 82 1008.7
20260509150353 59 222 7.0 9.6 0.00 0.00 0.00 83 1008.5
20260509145850 59 212 13.0 14.8 0.00 0.00 0.00 82 1008.5
20260509145344 59 227 7.8 13.0 0.00 0.00 0.00 84 1008.5
20260509144841 59 214 11.3 13.9 0.00 0.00 0.00 83 1008.5
20260509144338 59 204 7.8 12.2 0.00 0.00 0.00 83 1008.7
20260509143835 59 255 9.6 11.3 0.00 0.00 0.00 82 1008.8
20260509143333 59 249 9.6 13.0 0.00 0.00 0.00 83 1009.1
20260509142829 58 238 8.7 11.3 0.00 0.00 0.00 84 1008.9
20260509142325 58 239 6.1 9.6 0.00 0.00 0.00 85 1009.0
20260509141821 58 212 7.8 12.2 0.00 0.00 0.00 84 1008.9
20260509141318 57 234 13.0 14.8 0.00 0.00 0.00 84 1009.0
20260509140814 57 227 7.0 12.2 0.00 0.00 0.00 85 1008.9
20260509140311 57 235 7.0 8.7 0.00 0.00 0.00 88 1008.9
20260509135809 57 232 8.7 11.3 0.00 0.00 0.00 87 1009.0
20260509135306 57 238 9.6 13.9 0.00 0.00 0.00 87 1009.1
20260509134804 57 236 7.8 11.3 0.00 0.00 0.00 89 1009.2
20260509134301 56 239 7.8 9.6 0.00 0.00 0.00 90 1009.1
20260509133758 55 236 9.6 12.2 0.00 0.00 0.00 91 1009.1
20260509133254 55 233 8.7 11.3 0.00 0.00 0.00 92 1009.1
20260509132753 55 240 7.8 9.6 0.00 0.00 0.00 93 1009.1
20260509132252 55 224 7.0 7.8 0.00 0.00 0.00 95 1008.9
20260509131748 54 221 7.0 7.8 0.00 0.00 0.00 95 1008.8
20260509131244 54 207 7.0 8.7 0.00 0.00 0.00 95 1009.0
20260509130741 54 235 6.1 7.0 0.00 0.00 0.00 95 1009.2
20260509130236 54 241 7.8 13.0 0.00 0.00 0.00 96 1008.9
20260509125733 54 252 7.8 8.7 0.00 0.00 0.00 96 1009.1
20260509125230 53 241 6.1 11.3 0.00 0.00 0.00 96 1009.2
20260509124726 53 237 8.7 9.6 0.00 0.00 0.00 97 1009.0
20260509124223 54 254 9.6 11.3 0.00 0.00 0.00 97 1009.0
20260509123722 54 239 7.0 8.7 0.00 0.00 0.00 98 1009.0
20260509123218 54 231 6.1 7.8 0.00 0.00 0.00 98 1009.0
20260509122714 54 240 6.1 8.7 0.00 0.00 0.00 98 1008.7
20260509122211 54 221 6.1 7.0 0.00 0.00 0.00 99 1009.0
20260509121707 53 216 7.8 8.7 0.00 0.00 0.00 99 1009.1
20260509121205 53 215 5.2 7.0 0.00 0.00 0.00 99 1009.0
20260509120703 53 230 5.2 7.0 0.00 0.00 0.00 99 1009.2
20260509120201 53 216 6.1 7.0 0.00 0.00 0.00 99 1009.3
20260509115658 52 210 4.3 7.0 0.00 0.00 0.00 99 1009.3
20260509115155 52 229 4.3 5.2 0.00 0.00 0.00 99 1009.2
20260509114654 51 216 3.5 5.2 0.00 0.00 0.00 99 1009.1
20260509114153 51 210 3.5 4.3 0.00 0.00 0.00 99 1009.0
20260509113650 50 216 1.7 2.6 0.00 0.00 0.00 99 1009.2
20260509113147 49 212 1.7 1.7 0.00 0.00 0.00 99 1008.9
20260509112644 50 215 1.7 2.6 0.00 0.00 0.00 99 1009.0
20260509112141 50 215 1.7 1.7 0.00 0.00 0.00 99 1009.0
20260509111638 50 208 1.7 2.6 0.00 0.00 0.00 99 1009.0
20260509111135 50 214 2.6 2.6 0.00 0.00 0.00 99 1009.0
20260509110632 50 212 2.6 2.6 0.00 0.00 0.00 99 1008.9
20260509110129 50 216 3.5 5.2 0.00 0.00 0.00 99 1009.0
20260509105627 50 214 3.5 4.3 0.00 0.00 0.00 99 1009.1
20260509105124 50 222 3.5 4.3 0.00 0.00 0.00 99 1009.0
20260509104621 49 232 2.6 4.3 0.00 0.00 0.00 99 1008.9
20260509104118 49 233 1.7 1.7 0.00 0.00 0.00 99 1008.8
20260509103616 50 228 2.6 2.6 0.00 0.00 0.00 99 1008.9
20260509103114 50 222 2.6 2.6 0.00 0.00 0.00 99 1008.9
20260509102611 50 222 1.7 1.7 0.00 0.00 0.00 99 1008.8
20260509102108 50 237 1.7 1.7 0.00 0.00 0.00 99 1008.8
20260509101604 49 225 0.9 1.7 0.00 0.00 0.00 99 1008.7
20260509101101 50 216 1.7 1.7 0.00 0.00 0.00 99 1008.8
20260509100558 50 218 2.6 2.6 0.00 0.00 0.00 99 1008.5
20260509100055 50 221 1.7 1.7 0.00 0.00 0.00 99 1008.5
20260509095551 50 215 2.6 2.6 0.00 0.00 0.00 99 1008.7
20260509095049 50 215 2.6 2.6 0.00 0.00 0.00 99 1008.8
20260509094545 50 227 0.9 1.7 0.00 0.00 0.00 99 1008.8
20260509094043 50 224 0.9 1.7 0.00 0.00 0.00 99 1008.8
20260509093541 50 215 1.7 1.7 0.00 0.00 0.00 99 1008.7
20260509093038 50 216 2.6 2.6 0.00 0.00 0.00 99 1008.9
20260509092536 50 215 2.6 2.6 0.00 0.00 0.00 99 1008.9
20260509092035 50 214 2.6 2.6 0.00 0.00 0.00 99 1009.0
20260509091531 51 217 2.6 2.6 0.00 0.00 0.00 99 1008.8
20260509091028 51 223 1.7 1.7 0.00 0.00 0.00 99 1008.8
20260509090525 51 227 2.6 2.6 0.00 0.00 0.00 99 1009.0
20260509090023 51 220 3.5 5.2 0.00 0.00 0.00 99 1009.1
20260509085520 51 212 2.6 2.6 0.00 0.00 0.00 99 1009.2
20260509085016 50 200 2.6 4.3 0.00 0.00 0.00 99 1009.0
20260509084513 51 216 3.5 5.2 0.00 0.00 0.00 99 1009.1
20260509084010 50 214 2.6 2.6 0.00 0.00 0.00 99 1009.2
20260509083508 50 219 2.6 4.3 0.00 0.00 0.00 99 1009.4